Mullan Pass, ID

5:18 AM PDT on June 27, 2017 (GMT -0700)
Mullan Pass

Weather History for KMLP - October, 2012

Change the Weather History Date:

Monday, October 15, 2012

  Actual Average (K3TH) Record (K3TH)
Temperature  
Mean Temperature 42 °F -  
Max Temperature 46 °F 56 °F 64 °F (2002)
Min Temperature 39 °F 35 °F 28 °F (2002)
Degree Days  
Heating Degree Days 24    
Moisture  
Dew Point 42 °F    
Average Humidity 99    
Maximum Humidity 100    
Minimum Humidity 93    
Precipitation  
Precipitation 1.04 in - - ()
Sea Level Pressure  
Sea Level Pressure 29.89 in    
Wind  
Wind Speed 8 mph (SW)    
Max Wind Speed 15 mph    
Max Gust Speed 33 mph    
Visibility 4 miles    
Events Fog , Rain    
Averages and records for this station are not official NWS values.
T = Trace of Precipitation, MM = Missing Value Source: NWS Daily Summary

Daily Weather History Graph

Daily Weather History Graph

Search for Another Location

Airport or City:

Trip Planner

Search our weather history database for the weather conditions in past years. The results will help you decide how hot, cold, wet, or windy it might be!

Date:

Astronomy

Oct. 15, 2012 Rise Set
Actual Time 7:02 AM PDT 5:53 PM PDT
Civil Twilight 6:31 AM PDT 6:24 PM PDT
Nautical Twilight 5:55 AM PDT 7:00 PM PDT
Astronomical Twilight 5:19 AM PDT 7:35 PM PDT
Moon 7:22 AM PDT (10/15) 5:50 PM PDT (10/15)
Length of Visible Light 11h 53m
Length of Day
10h 51m
New Moon, 0% of the Moon is Illuminated
Oct 15
New Moon
Oct 21
First Quarter
Oct 29
Full
Nov 6
Last Quarter
Nov 13
New

Hourly Weather History & Observations

Time (PDT) Temp. Windchill Dew Point Humidity Pressure Visibility Wind Dir Wind Speed Gust Speed Precip Events Conditions
12:18 AM 42.8 °F 38.0 °F 41.0 °F 93% 30.00 in 7.0 mi WSW 8.1 mph 24.2 mph 0.02 in Rain Light Rain
12:53 AM 41.0 °F 34.3 °F 41.0 °F 100% 29.83 in 8.0 mi SW 11.5 mph 25.3 mph 0.06 in Rain Light Rain
1:05 AM 41.0 °F 34.3 °F 41.0 °F 100% 29.98 in 2.0 mi SW 11.5 mph 24.2 mph 0.02 in Rain Light Rain
1:27 AM 41.0 °F 33.1 °F 41.0 °F 100% 29.98 in 8.0 mi SW 15.0 mph 29.9 mph 0.04 in Rain Light Rain
1:45 AM 41.0 °F 35.8 °F 41.0 °F 100% 29.98 in 7.0 mi SW 8.1 mph 24.2 mph 0.05 in Rain Light Rain
1:53 AM 41.0 °F 34.3 °F 41.0 °F 100% 29.79 in 9.0 mi SW 11.5 mph 29.9 mph 0.06 in Rain Light Rain
2:06 AM 42.8 °F 37.5 °F 41.0 °F 93% 29.97 in 2.5 mi SW 9.2 mph 27.6 mph 0.00 in Rain Light Rain
2:09 AM 41.0 °F 35.8 °F 41.0 °F 100% 29.97 in 1.2 mi SW 8.1 mph 19.6 mph 0.00 in Rain Light Rain
2:16 AM 41.0 °F 34.3 °F 41.0 °F 100% 29.96 in 2.0 mi SW 11.5 mph 26.5 mph 0.01 in Rain Light Rain
2:23 AM 42.8 °F 36.6 °F 41.0 °F 93% 29.96 in 6.0 mi SSW 11.5 mph 29.9 mph 0.01 in Rain Light Rain
2:53 AM 41.0 °F 33.5 °F 39.9 °F 96% 29.78 in 7.0 mi SW 13.8 mph 27.6 mph 0.03 in Rain Light Rain
3:33 AM 41.0 °F 36.4 °F 41.0 °F 100% 29.94 in 2.5 mi SW 6.9 mph 20.7 mph 0.04 in Rain Light Rain
3:40 AM 41.0 °F 35.8 °F 41.0 °F 100% 29.94 in 1.2 mi SW 8.1 mph - 0.05 in Rain Rain
3:53 AM 41.0 °F 34.7 °F 41.0 °F 100% 29.76 in 1.0 mi SW 10.4 mph 20.7 mph 0.07 in Rain Light Rain
4:01 AM 41.0 °F 36.4 °F 41.0 °F 100% 29.94 in 2.0 mi SW 6.9 mph 26.5 mph 0.01 in Rain Light Rain
4:17 AM 41.0 °F 35.8 °F 41.0 °F 100% 29.94 in 1.5 mi WSW 8.1 mph - 0.03 in Rain Light Rain
4:24 AM 41.0 °F 36.4 °F 41.0 °F 100% 29.93 in 1.0 mi Variable 6.9 mph - 0.04 in Rain Light Rain
4:32 AM 41.0 °F 34.7 °F 41.0 °F 100% 29.93 in 0.5 mi WSW 10.4 mph 19.6 mph 0.05 in Fog , Rain Light Rain
4:53 AM 41.0 °F 35.8 °F 41.0 °F 100% 29.77 in 0.5 mi SW 8.1 mph 17.3 mph 0.07 in Fog , Rain Light Rain
5:53 AM 41.0 °F 36.4 °F 41.0 °F 100% 29.77 in 0.5 mi SW 6.9 mph - 0.04 in Fog , Rain Light Rain
6:53 AM 41.0 °F 37.1 °F 41.0 °F 100% 29.78 in 0.5 mi Variable 5.8 mph - 0.08 in Fog , Rain Light Rain
7:35 AM 41.0 °F 38.0 °F 41.0 °F 100% 29.95 in 1.5 mi Variable 4.6 mph - 0.09 in Rain Rain
7:41 AM 41.0 °F 38.0 °F 41.0 °F 100% 29.94 in 3.0 mi Variable 4.6 mph - 0.10 in Rain Rain
7:53 AM 41.0 °F 36.4 °F 41.0 °F 100% 29.78 in 4.0 mi Variable 6.9 mph - 0.12 in Rain Rain
7:57 AM 41.0 °F 39.0 °F 41.0 °F 100% 29.95 in 2.0 mi Variable 3.5 mph - 0.01 in Rain Rain
8:00 AM 41.0 °F 39.0 °F 41.0 °F 100% 29.95 in 1.5 mi Variable 3.5 mph - 0.02 in Rain Rain
8:03 AM 41.0 °F 35.8 °F 41.0 °F 100% 29.94 in 1.2 mi West 8.1 mph - 0.02 in Rain Light Rain
8:06 AM 41.0 °F 38.0 °F 41.0 °F 100% 29.94 in 1.5 mi Variable 4.6 mph - 0.03 in Rain Light Rain
8:08 AM 41.0 °F 38.0 °F 41.0 °F 100% 29.94 in 2.0 mi WSW 4.6 mph - 0.03 in Rain Rain
8:13 AM 41.0 °F 39.0 °F 41.0 °F 100% 29.95 in 1.8 mi Variable 3.5 mph - 0.04 in Rain Rain
8:15 AM 41.0 °F - 41.0 °F 100% 29.95 in 1.2 mi Calm Calm - 0.05 in Rain Rain
8:23 AM 41.0 °F - 41.0 °F 100% 29.95 in 0.2 mi Calm Calm - 0.07 in Fog , Rain Rain
8:34 AM 41.0 °F 35.8 °F 41.0 °F 100% 29.95 in 0.5 mi WNW 8.1 mph - 0.09 in Fog , Rain Rain
8:44 AM 41.0 °F 35.2 °F 41.0 °F 100% 29.95 in 0.8 mi NW 9.2 mph 17.3 mph 0.11 in Rain Rain
8:53 AM 39.9 °F 35.8 °F 39.9 °F 100% 29.80 in 0.8 mi Variable 5.8 mph - 0.13 in Rain Rain
8:58 AM 41.0 °F 37.1 °F 41.0 °F 100% 29.96 in 1.5 mi Variable 5.8 mph - 0.00 in Rain Light Rain
9:21 AM 41.0 °F 37.1 °F 41.0 °F 100% 29.95 in 10.0 mi SW 5.8 mph - 0.00 in   Overcast
9:32 AM 41.0 °F 36.4 °F 41.0 °F 100% 29.95 in 7.0 mi Variable 6.9 mph - 0.00 in   Overcast
9:53 AM 42.1 °F 39.2 °F 42.1 °F 100% 29.84 in 3.0 mi Variable 4.6 mph - 0.00 in   Overcast
10:01 AM 42.8 °F - 42.8 °F 100% 29.97 in 1.8 mi Calm Calm - N/A   Overcast
10:05 AM 42.8 °F 39.3 °F 42.8 °F 100% 29.97 in 0.8 mi Variable 5.8 mph - N/A   Overcast
10:25 AM 42.8 °F 38.0 °F 42.8 °F 100% 29.97 in 1.5 mi NW 8.1 mph 20.7 mph 0.00 in Rain Light Rain
10:27 AM 41.0 °F 36.4 °F 41.0 °F 100% 29.97 in 3.0 mi Variable 6.9 mph 20.7 mph 0.00 in   Overcast
10:35 AM 42.8 °F 40.1 °F 42.8 °F 100% 29.96 in 1.2 mi Variable 4.6 mph - 0.00 in   Overcast
10:45 AM 42.8 °F 40.1 °F 42.8 °F 100% 29.97 in 0.5 mi Variable 4.6 mph - 0.00 in Fog Fog
10:53 AM 42.1 °F 38.4 °F 42.1 °F 100% 29.82 in 0.2 mi Variable 5.8 mph - 0.00 in Fog Fog
11:32 AM 42.8 °F - 42.8 °F 100% 29.97 in 1.2 mi Calm Calm - N/A   Overcast
11:34 AM 42.8 °F 41.1 °F 42.8 °F 100% 29.97 in 2.0 mi Variable 3.5 mph - N/A   Overcast
11:49 AM 44.6 °F 42.2 °F 42.8 °F 93% 29.98 in 3.0 mi Variable 4.6 mph - N/A   Overcast
11:53 AM 44.1 °F 41.5 °F 44.1 °F 100% 29.86 in 1.2 mi Variable 4.6 mph - N/A   Overcast
12:01 PM 42.8 °F 38.0 °F 42.8 °F 100% 29.98 in 0.2 mi WNW 8.1 mph - N/A Fog Fog
12:04 PM 42.8 °F 38.6 °F 42.8 °F 100% 29.98 in 0.5 mi Variable 6.9 mph - N/A Fog Fog
12:08 PM 42.8 °F 40.1 °F 42.8 °F 100% 29.98 in 1.0 mi Variable 4.6 mph - 0.00 in Rain Light Rain
12:11 PM 42.8 °F 40.1 °F 42.8 °F 100% 29.98 in 5.0 mi Variable 4.6 mph - 0.00 in Rain Light Rain
12:18 PM 42.8 °F 39.3 °F 42.8 °F 100% 29.98 in 6.0 mi Variable 5.8 mph - 0.00 in Rain Light Rain
12:21 PM 42.8 °F 39.3 °F 42.8 °F 100% 29.98 in 2.5 mi Variable 5.8 mph - 0.01 in Rain Light Rain
12:23 PM 42.8 °F 39.3 °F 42.8 °F 100% 29.98 in 2.0 mi Variable 5.8 mph - 0.01 in Rain Light Rain
12:27 PM 42.8 °F 38.0 °F 42.8 °F 100% 29.98 in 1.2 mi NW 8.1 mph - 0.01 in Rain Light Rain
12:31 PM 42.8 °F 39.3 °F 42.8 °F 100% 29.98 in 2.0 mi Variable 5.8 mph - 0.01 in Rain Light Rain
12:36 PM 42.8 °F 38.6 °F 42.8 °F 100% 29.98 in 4.0 mi Variable 6.9 mph - 0.01 in   Overcast
12:49 PM 44.6 °F 41.4 °F 42.8 °F 93% 29.97 in 1.2 mi Variable 5.8 mph - 0.01 in   Overcast
12:53 PM 44.1 °F 40.8 °F 44.1 °F 100% 29.85 in 0.5 mi Variable 5.8 mph - 0.01 in Fog Fog
12:57 PM 44.6 °F 41.4 °F 42.8 °F 93% 29.97 in 0.2 mi Variable 5.8 mph - N/A Fog Fog
1:01 PM 42.8 °F 40.1 °F 42.8 °F 100% 29.97 in 0.5 mi Variable 4.6 mph - 0.00 in Fog , Rain Light Rain
1:12 PM 42.8 °F 41.1 °F 42.8 °F 100% 29.97 in 0.2 mi Variable 3.5 mph - 0.00 in Fog , Rain Light Rain
1:40 PM 42.8 °F 40.1 °F 42.8 °F 100% 29.97 in 1.0 mi Variable 4.6 mph - 0.02 in Rain Light Rain
1:42 PM 42.8 °F 40.1 °F 42.8 °F 100% 29.97 in 2.5 mi Variable 4.6 mph - 0.03 in Rain Light Rain
1:50 PM 44.6 °F 40.7 °F 44.6 °F 100% 29.97 in 6.0 mi Variable 6.9 mph - 0.03 in   Overcast
1:53 PM 43.0 °F 39.5 °F 43.0 °F 100% 29.81 in 10.0 mi WSW 5.8 mph - 0.03 in   Overcast
1:59 PM 42.8 °F 39.3 °F 42.8 °F 100% 29.97 in 1.8 mi Variable 5.8 mph - 0.00 in Rain Light Rain
2:07 PM 42.8 °F 38.6 °F 42.8 °F 100% 29.96 in 1.0 mi Variable 6.9 mph 21.9 mph 0.01 in Rain Light Rain
2:23 PM 42.8 °F 38.6 °F 42.8 °F 100% 29.97 in 2.0 mi Variable 6.9 mph 18.4 mph 0.03 in Rain Light Rain
2:31 PM 42.8 °F 38.0 °F 42.8 °F 100% 29.97 in 6.0 mi West 8.1 mph - 0.03 in Rain Light Rain
2:36 PM 42.8 °F 38.0 °F 42.8 °F 100% 29.97 in 10.0 mi SW 8.1 mph - 0.03 in Rain Light Rain
2:53 PM 43.0 °F 39.5 °F 43.0 °F 100% 29.81 in 10.0 mi Variable 5.8 mph - 0.03 in   Overcast
3:07 PM 42.8 °F 38.6 °F 42.8 °F 100% 29.96 in 10.0 mi Variable 6.9 mph - N/A   Overcast
3:34 PM 42.8 °F 36.6 °F 42.8 °F 100% 29.96 in 10.0 mi SW 11.5 mph 19.6 mph N/A   Overcast
3:53 PM 42.1 °F 36.6 °F 42.1 °F 100% 29.80 in 10.0 mi WSW 9.2 mph - N/A   Overcast
4:02 PM 42.8 °F 38.0 °F 41.0 °F 93% 29.96 in 10.0 mi WSW 8.1 mph 21.9 mph N/A   Overcast
4:09 PM 42.8 °F 38.6 °F 42.8 °F 100% 29.96 in 10.0 mi Variable 6.9 mph - N/A   Overcast
4:16 PM 42.8 °F 37.0 °F 42.8 °F 100% 29.95 in 10.0 mi WSW 10.4 mph - N/A   Overcast
4:53 PM 43.0 °F 38.8 °F 42.1 °F 97% 29.76 in 10.0 mi SSW 6.9 mph - N/A   Overcast
5:05 PM 42.8 °F 39.3 °F 42.8 °F 100% 29.92 in 10.0 mi Variable 5.8 mph - N/A   Overcast
5:24 PM 42.8 °F 38.6 °F 42.8 °F 100% 29.92 in 10.0 mi SW 6.9 mph - N/A   Overcast
5:53 PM 42.1 °F 39.2 °F 41.0 °F 96% 29.76 in 10.0 mi Variable 4.6 mph - N/A   Overcast
6:53 PM 43.0 °F 38.2 °F 41.0 °F 93% 29.73 in 10.0 mi SW 8.1 mph - N/A   Overcast
7:00 PM 42.8 °F 41.1 °F 41.0 °F 93% 29.89 in 10.0 mi Variable 3.5 mph - N/A   Mostly Cloudy
7:10 PM 42.8 °F 38.6 °F 41.0 °F 93% 29.89 in 10.0 mi Variable 6.9 mph - N/A   Overcast
7:53 PM 42.1 °F 37.7 °F 41.0 °F 96% 29.71 in 10.0 mi Variable 6.9 mph - N/A   Overcast
8:10 PM 42.8 °F 37.5 °F 42.8 °F 100% 29.85 in 8.0 mi South 9.2 mph - 0.01 in Rain Light Rain
8:17 PM 42.8 °F 38.0 °F 42.8 °F 100% 29.85 in 8.0 mi SSE 8.1 mph - 0.01 in Rain Light Rain
8:27 PM 42.8 °F 38.0 °F 42.8 °F 100% 29.84 in 5.0 mi SSE 8.1 mph 18.4 mph 0.01 in Rain Light Rain
8:32 PM 42.8 °F 37.5 °F 42.8 °F 100% 29.84 in 2.5 mi South 9.2 mph 21.9 mph 0.01 in Rain Light Rain
8:47 PM 42.8 °F 37.0 °F 42.8 °F 100% 29.82 in 1.0 mi South 10.4 mph 16.1 mph 0.02 in Rain Light Rain
8:53 PM 43.0 °F 36.8 °F 43.0 °F 100% 29.65 in 0.2 mi South 11.5 mph 23.0 mph 0.02 in Fog , Rain Light Rain
9:01 PM 42.8 °F 38.6 °F 42.8 °F 100% 29.81 in 0.2 mi Variable 6.9 mph 23.0 mph 0.01 in Fog , Rain Light Rain
9:08 PM 42.8 °F 37.0 °F 42.8 °F 100% 29.80 in 0.5 mi SSE 10.4 mph 21.9 mph 0.01 in Fog , Rain Light Rain
9:33 PM 42.8 °F 36.2 °F 42.8 °F 100% 29.79 in 1.0 mi South 12.7 mph 28.8 mph 0.02 in Rain Light Rain
9:50 PM 42.8 °F 36.6 °F 42.8 °F 100% 29.78 in 0.8 mi SSW 11.5 mph 27.6 mph 0.03 in Rain Light Rain
9:53 PM 43.0 °F 37.7 °F 43.0 °F 100% 29.65 in 0.5 mi SSW 9.2 mph 27.6 mph 0.03 in Fog , Rain Light Rain
10:25 PM 44.6 °F 39.2 °F 44.6 °F 100% 29.75 in 0.2 mi South 10.4 mph 23.0 mph 0.04 in Fog , Rain Rain
10:38 PM 44.6 °F 38.4 °F 44.6 °F 100% 29.74 in 0.5 mi SSW 12.7 mph 33.4 mph 0.08 in Fog , Rain Rain
10:53 PM 44.1 °F 38.1 °F 44.1 °F 100% 29.61 in 0.5 mi South 11.5 mph 26.5 mph 0.13 in Fog , Rain Rain
11:14 PM 44.6 °F 38.8 °F 44.6 °F 100% 29.73 in 0.2 mi South 11.5 mph 24.2 mph 0.07 in Fog , Rain Light Rain
11:49 PM 44.6 °F 39.2 °F 44.6 °F 100% 29.72 in 0.5 mi SSW 10.4 mph 24.2 mph 0.12 in Fog , Rain Rain
11:53 PM 45.0 °F 39.3 °F 45.0 °F 100% 29.53 in 0.5 mi SSW 11.5 mph 24.2 mph 0.13 in Fog , Rain Light Rain